Terminal Aerodrome Forecast
Issued by NWS Missoula, MT

Home | Current Version | Previous Version | Text Only | Print | Product List | Glossary On
Versions: 1 2 3 4 5 6 7 8 9 10 11 12 13 14
000
FTUS45 KMSO 231721
TAFBTM
TAF
KBTM 231721Z 2318/2418 18006KT P6SM SCT080
     FM240000 19006KT P6SM BKN100
     FM240600 16003KT P6SM BKN250=

USA.gov is the U.S. government's official web portal to all federal, state and local government web resources and services.